Time,TemperatureF,DewpointF,PressureIn,WindDirection,WindDirectionDegrees,WindSpeedMPH,WindSpeedGustMPH,Humidity,HourlyPrecipIn,Conditions,Clouds,dailyrainin,SoftwareType,DateUTC
2013-08-13 00:00:00,78.1,72.2,30.05,SW,225,0.0,1.0,82,0.00,CLR,,0.04,WeatherDisplay:10.37,2013-08-13 05:00:00,
2013-08-13 00:05:00,78.3,72.7,30.05,SW,225,0.0,0.0,83,0.00,CLR,,0.04,WeatherDisplay:10.37,2013-08-13 05:05:00,
2013-08-13 00:10:00,78.3,71.6,30.05,SW,225,0.0,0.0,80,0.00,CLR,,0.04,WeatherDisplay:10.37,2013-08-13 05:10:00,
2013-08-13 00:15:00,78.5,72.5,30.05,SW,225,0.0,1.0,82,0.00,CLR,,0.04,WeatherDisplay:10.37,2013-08-13 05:15:00,
2013-08-13 00:20:00,78.5,72.2,30.05,SW,225,0.0,2.0,81,0.00,CLR,,0.04,WeatherDisplay:10.37,2013-08-13 05:20:00,
2013-08-13 00:25:00,78.6,72.3,30.05,SW,225,0.0,2.0,81,0.00,CLR,,0.04,WeatherDisplay:10.37,2013-08-13 05:25:00,
2013-08-13 00:30:00,79.2,72.5,30.05,SW,225,0.0,4.0,80,0.00,CLR,,0.04,WeatherDisplay:10.37,2013-08-13 05:30:00,
2013-08-13 00:35:00,80.1,73.7,30.05,SW,225,0.0,1.0,81,0.00,CLR,,0.04,WeatherDisplay:10.37,2013-08-13 05:35:00,
2013-08-13 00:40:00,80.5,71.8,30.05,SSW,204,1.0,4.0,75,0.00,CLR,,0.04,WeatherDisplay:10.37,2013-08-13 05:40:00,
2013-08-13 00:45:00,80.5,72.2,30.05,South,180,0.0,1.0,76,0.00,CLR,,0.04,WeatherDisplay:10.37,2013-08-13 05:45:00,
2013-08-13 00:50:00,80.5,71.4,30.04,South,180,0.0,1.0,74,0.00,CLR,,0.04,WeatherDisplay:10.37,2013-08-13 05:50:00,
2013-08-13 00:55:00,80.5,71.8,30.04,South,180,0.0,1.0,75,0.00,CLR,,0.04,WeatherDisplay:10.37,2013-08-13 05:55:00,
2013-08-13 01:00:00,80.5,73.0,30.04,South,180,0.0,0.0,78,0.00,CLR,,0.04,WeatherDisplay:10.37,2013-08-13 06:00:00,
2013-08-13 01:05:00,80.7,72.8,30.03,South,180,0.0,0.0,77,0.00,CLR,,0.04,WeatherDisplay:10.37,2013-08-13 06:05:00,
2013-08-13 01:10:00,81.1,71.6,30.03,South,180,0.0,1.0,73,0.00,CLR,,0.04,WeatherDisplay:10.37,2013-08-13 06:10:00,
2013-08-13 01:15:00,81.2,71.3,30.03,South,180,0.0,1.0,72,0.00,CLR,,0.04,WeatherDisplay:10.37,2013-08-13 06:15:00,
2013-08-13 01:20:00,81.6,73.3,30.03,South,180,0.0,1.0,76,0.00,CLR,,0.04,WeatherDisplay:10.37,2013-08-13 06:20:00,
2013-08-13 01:25:00,82.0,72.1,30.03,South,180,0.0,1.0,72,0.00,CLR,,0.04,WeatherDisplay:10.37,2013-08-13 06:25:00,
2013-08-13 01:30:00,82.0,71.7,30.03,South,180,0.0,1.0,71,0.00,CLR,,0.04,WeatherDisplay:10.37,2013-08-13 06:30:00,
2013-08-13 01:35:00,82.4,71.6,30.03,South,180,0.0,1.0,70,0.00,CLR,,0.04,WeatherDisplay:10.37,2013-08-13 06:35:00,
2013-08-13 01:40:00,82.6,72.2,30.03,South,180,0.0,4.0,71,0.00,CLR,,0.04,WeatherDisplay:10.37,2013-08-13 06:40:00,
2013-08-13 01:45:00,83.0,73.4,30.03,South,180,0.0,3.0,73,0.00,CLR,,0.04,WeatherDisplay:10.37,2013-08-13 06:45:00,
2013-08-13 01:50:00,83.0,72.2,30.03,SSE,149,1.0,4.0,70,0.00,CLR,,0.04,WeatherDisplay:10.37,2013-08-13 06:50:00,
2013-08-13 01:55:00,82.8,72.0,30.03,ESE,112,0.0,1.0,70,0.00,CLR,,0.04,WeatherDisplay:10.37,2013-08-13 06:55:00,
2013-08-13 02:00:00,82.6,71.4,30.03,ESE,112,0.0,1.0,69,0.00,CLR,,0.04,WeatherDisplay:10.37,2013-08-13 07:00:00,
2013-08-13 02:05:00,82.8,72.8,30.03,ESE,112,0.0,1.0,72,0.00,CLR,,0.04,WeatherDisplay:10.37,2013-08-13 07:05:00,
2013-08-13 02:10:00,83.6,73.2,30.03,ESE,112,0.0,1.0,71,0.00,CLR,,0.04,WeatherDisplay:10.37,2013-08-13 07:10:00,
2013-08-13 02:15:00,83.8,71.2,30.03,ESE,112,0.0,1.0,66,0.00,CLR,,0.04,WeatherDisplay:10.37,2013-08-13 07:15:00,
2013-08-13 02:20:00,83.8,71.7,30.03,ESE,112,0.0,1.0,67,0.00,CLR,,0.04,WeatherDisplay:10.37,2013-08-13 07:20:00,
2013-08-13 02:25:00,84.0,73.2,30.03,ESE,112,0.0,1.0,70,0.00,CLR,,0.04,WeatherDisplay:10.37,2013-08-13 07:25:00,
2013-08-13 02:30:00,84.0,71.9,30.03,ESE,112,0.0,4.0,67,0.00,CLR,,0.04,WeatherDisplay:10.37,2013-08-13 07:30:00,
2013-08-13 02:35:00,83.8,71.2,30.02,ESE,112,0.0,2.0,66,0.00,CLR,,0.04,WeatherDisplay:10.37,2013-08-13 07:35:00,
2013-08-13 02:40:00,84.0,71.0,30.02,ESE,112,0.0,3.0,65,0.00,CLR,,0.04,WeatherDisplay:10.37,2013-08-13 07:40:00,
2013-08-13 02:45:00,84.3,71.7,30.02,ESE,112,0.0,1.0,66,0.01,RA,,0.05,WeatherDisplay:10.37,2013-08-13 07:45:00,
2013-08-13 02:50:00,84.1,72.0,30.03,ESE,112,0.0,4.0,67,0.01,RA,,0.05,WeatherDisplay:10.37,2013-08-13 07:50:00,
2013-08-13 02:55:00,84.1,72.0,30.03,ESE,112,0.0,1.0,67,0.00,CLR,,0.05,WeatherDisplay:10.37,2013-08-13 07:55:00,
2013-08-13 03:00:00,84.3,71.7,30.03,ESE,112,0.0,1.0,66,0.01,RA,,0.06,WeatherDisplay:10.37,2013-08-13 08:00:00,
2013-08-13 03:05:00,84.5,69.6,30.01,ESE,112,0.0,5.0,61,0.01,RA,,0.06,WeatherDisplay:10.37,2013-08-13 08:05:00,
2013-08-13 03:10:00,84.7,69.8,30.01,South,171,1.0,6.0,61,0.04,RA,,0.10,WeatherDisplay:10.37,2013-08-13 08:10:00,
2013-08-13 03:15:00,84.7,70.7,30.01,West,270,0.0,1.0,63,0.06,RA,,0.12,WeatherDisplay:10.37,2013-08-13 08:15:00,
2013-08-13 03:20:00,84.9,71.4,30.00,NNW,328,1.0,4.0,64,0.05,RA,,0.15,WeatherDisplay:10.37,2013-08-13 08:20:00,
2013-08-13 03:25:00,85.5,71.5,30.00,NE,45,0.0,1.0,63,0.06,RA,,0.18,WeatherDisplay:10.37,2013-08-13 08:25:00,
2013-08-13 03:30:00,85.7,70.2,30.00,NE,45,0.0,1.0,60,0.06,RA,,0.21,WeatherDisplay:10.37,2013-08-13 08:30:00,
2013-08-13 03:35:00,85.7,70.7,30.00,NE,45,0.0,1.0,61,0.06,RA,,0.24,WeatherDisplay:10.37,2013-08-13 08:35:00,
2013-08-13 03:40:00,85.7,71.2,30.00,NE,45,0.0,1.0,62,0.06,RA,,0.27,WeatherDisplay:10.37,2013-08-13 08:40:00,
2013-08-13 03:45:00,85.9,70.4,30.00,NE,45,0.0,3.0,60,0.05,RA,,0.29,WeatherDisplay:10.37,2013-08-13 08:45:00,
2013-08-13 03:50:00,85.9,72.3,29.99,NE,45,0.0,4.0,64,0.05,RA,,0.32,WeatherDisplay:10.37,2013-08-13 08:50:00,
2013-08-13 03:55:00,85.5,71.5,29.99,NE,45,0.0,1.0,63,0.05,RA,,0.34,WeatherDisplay:10.37,2013-08-13 08:55:00,
2013-08-13 04:00:00,84.7,70.7,29.99,NE,45,0.0,1.0,63,0.05,RA,,0.37,WeatherDisplay:10.37,2013-08-13 09:00:00,
2013-08-13 04:05:00,84.3,73.0,29.99,NE,45,0.0,2.0,69,0.05,RA,,0.39,WeatherDisplay:10.37,2013-08-13 09:05:00,
2013-08-13 04:10:00,84.1,71.1,29.99,NE,45,0.0,1.0,65,0.04,RA,,0.41,WeatherDisplay:10.37,2013-08-13 09:10:00,
2013-08-13 04:15:00,84.3,71.2,29.99,NE,45,0.0,1.0,65,0.04,RA,,0.43,WeatherDisplay:10.37,2013-08-13 09:15:00,
2013-08-13 04:20:00,84.1,71.5,29.97,NE,45,0.0,1.0,66,0.04,RA,,0.45,WeatherDisplay:10.37,2013-08-13 09:20:00,
2013-08-13 04:25:00,84.1,72.0,29.97,NE,45,0.0,1.0,67,0.04,RA,,0.47,WeatherDisplay:10.37,2013-08-13 09:25:00,
2013-08-13 04:30:00,84.3,71.7,29.97,NE,45,0.0,1.0,66,0.04,RA,,0.49,WeatherDisplay:10.37,2013-08-13 09:30:00,
2013-08-13 04:35:00,84.1,70.6,29.97,NE,45,0.0,1.0,64,0.03,RA,,0.50,WeatherDisplay:10.37,2013-08-13 09:35:00,
2013-08-13 04:40:00,83.8,71.7,29.97,NE,45,0.0,0.0,67,0.02,RA,,0.51,WeatherDisplay:10.37,2013-08-13 09:40:00,
2013-08-13 04:45:00,83.4,70.4,29.97,NE,45,0.0,1.0,65,0.03,RA,,0.53,WeatherDisplay:10.37,2013-08-13 09:45:00,
2013-08-13 04:50:00,83.0,69.6,29.97,NE,45,0.0,1.0,64,0.03,RA,,0.54,WeatherDisplay:10.37,2013-08-13 09:50:00,
2013-08-13 04:55:00,83.0,70.9,29.97,NE,45,0.0,1.0,67,0.02,RA,,0.55,WeatherDisplay:10.37,2013-08-13 09:55:00,
2013-08-13 05:00:00,83.0,70.5,29.97,NE,45,0.0,4.0,66,0.01,RA,,0.55,WeatherDisplay:10.37,2013-08-13 10:00:00,
2013-08-13 05:05:00,83.0,72.2,29.97,NE,45,0.0,0.0,70,0.01,RA,,0.56,WeatherDisplay:10.37,2013-08-13 10:05:00,
2013-08-13 05:10:00,82.8,71.2,29.97,NE,45,0.0,0.0,68,0.02,RA,,0.57,WeatherDisplay:10.37,2013-08-13 10:10:00,
2013-08-13 05:15:00,82.6,71.0,29.97,NE,45,0.0,0.0,68,0.01,RA,,0.57,WeatherDisplay:10.37,2013-08-13 10:15:00,
2013-08-13 05:20:00,82.6,71.4,29.97,NE,45,0.0,1.0,69,0.01,RA,,0.58,WeatherDisplay:10.37,2013-08-13 10:20:00,
2013-08-13 05:25:00,82.8,71.6,29.97,NE,45,0.0,1.0,69,0.02,RA,,0.59,WeatherDisplay:10.37,2013-08-13 10:25:00,
2013-08-13 05:30:00,83.2,71.5,29.97,NE,45,0.0,2.0,68,0.01,RA,,0.59,WeatherDisplay:10.37,2013-08-13 10:30:00,
2013-08-13 05:35:00,83.2,70.2,29.97,NE,45,0.0,2.0,65,0.00,CLR,,0.59,WeatherDisplay:10.37,2013-08-13 10:35:00,
2013-08-13 05:40:00,83.0,70.5,29.97,NE,45,0.0,4.0,66,0.01,RA,,0.60,WeatherDisplay:10.37,2013-08-13 10:40:00,
2013-08-13 05:45:00,82.8,70.7,29.97,North,355,1.0,5.0,67,0.01,RA,,0.60,WeatherDisplay:10.37,2013-08-13 10:45:00,
2013-08-13 05:50:00,82.2,69.7,29.97,NNW,327,3.0,9.0,66,0.01,RA,,0.61,WeatherDisplay:10.37,2013-08-13 10:50:00,
2013-08-13 05:55:00,81.6,69.1,29.97,NW,323,1.0,4.0,66,0.01,RA,,0.61,WeatherDisplay:10.37,2013-08-13 10:55:00,
2013-08-13 06:00:00,81.4,68.5,29.97,West,270,0.0,5.0,65,0.00,CLR,,0.61,WeatherDisplay:10.37,2013-08-13 11:00:00,
2013-08-13 06:05:00,81.1,68.2,29.97,WNW,291,1.0,6.0,65,0.01,RA,,0.62,WeatherDisplay:10.37,2013-08-13 11:05:00,
2013-08-13 06:10:00,80.9,68.9,29.97,NW,326,1.0,5.0,67,0.01,RA,,0.62,WeatherDisplay:10.37,2013-08-13 11:10:00,
2013-08-13 06:15:00,80.5,69.4,29.97,NNW,338,0.0,4.0,69,0.00,CLR,,0.62,WeatherDisplay:10.37,2013-08-13 11:15:00,
2013-08-13 06:20:00,80.3,69.2,29.97,NNW,338,0.0,4.0,69,0.01,RA,,0.63,WeatherDisplay:10.37,2013-08-13 11:20:00,
2013-08-13 06:25:00,80.1,69.4,29.97,NNW,338,0.0,1.0,70,0.01,RA,,0.63,WeatherDisplay:10.37,2013-08-13 11:25:00,
2013-08-13 06:30:00,79.9,69.7,29.97,NNW,338,0.0,1.0,71,0.00,CLR,,0.63,WeatherDisplay:10.37,2013-08-13 11:30:00,
2013-08-13 06:35:00,79.9,69.7,29.97,NNW,338,0.0,0.0,71,0.00,CLR,,0.63,WeatherDisplay:10.37,2013-08-13 11:35:00,
2013-08-13 06:40:00,79.8,70.0,29.97,NNW,338,0.0,1.0,72,0.00,CLR,,0.63,WeatherDisplay:10.37,2013-08-13 11:40:00,
2013-08-13 06:45:00,79.6,69.4,29.97,NNW,338,0.0,1.0,71,0.00,CLR,,0.63,WeatherDisplay:10.37,2013-08-13 11:45:00,
2013-08-13 06:50:00,79.8,69.1,29.98,NNW,338,0.0,1.0,70,0.00,CLR,,0.63,WeatherDisplay:10.37,2013-08-13 11:50:00,
2013-08-13 06:55:00,79.9,68.4,29.98,NNW,338,0.0,1.0,68,0.00,CLR,,0.63,WeatherDisplay:10.37,2013-08-13 11:55:00,
2013-08-13 07:00:00,80.3,68.8,29.98,NNW,338,1.0,5.0,68,0.01,RA,,0.64,WeatherDisplay:10.37,2013-08-13 12:00:00,
2013-08-13 07:05:00,80.5,69.4,29.97,NNW,338,0.0,3.0,69,0.01,RA,,0.64,WeatherDisplay:10.37,2013-08-13 12:05:00,
2013-08-13 07:10:00,80.3,69.6,29.97,NNW,338,0.0,1.0,70,0.00,CLR,,0.64,WeatherDisplay:10.37,2013-08-13 12:10:00,
2013-08-13 07:15:00,80.1,70.3,29.97,NNW,338,0.0,1.0,72,0.00,CLR,,0.64,WeatherDisplay:10.37,2013-08-13 12:15:00,
2013-08-13 07:20:00,79.8,70.4,29.98,NNW,338,0.0,0.0,73,0.00,CLR,,0.64,WeatherDisplay:10.37,2013-08-13 12:20:00,
2013-08-13 07:25:00,79.6,69.8,29.98,NNW,338,0.0,0.0,72,0.00,CLR,,0.64,WeatherDisplay:10.37,2013-08-13 12:25:00,
2013-08-13 07:30:00,79.4,70.4,29.98,NNW,338,0.0,0.0,74,0.00,CLR,,0.64,WeatherDisplay:10.37,2013-08-13 12:30:00,
2013-08-13 07:35:00,79.4,70.8,29.97,NNW,338,0.0,1.0,75,0.00,CLR,,0.64,WeatherDisplay:10.37,2013-08-13 12:35:00,
2013-08-13 07:40:00,79.2,71.0,29.97,NNW,338,0.0,0.0,76,0.00,CLR,,0.64,WeatherDisplay:10.37,2013-08-13 12:40:00,
2013-08-13 07:45:00,79.0,70.8,29.97,NNW,338,0.0,1.0,76,0.00,CLR,,0.64,WeatherDisplay:10.37,2013-08-13 12:45:00,
2013-08-13 07:50:00,78.6,71.9,29.98,NNW,338,0.0,0.0,80,0.00,CLR,,0.64,WeatherDisplay:10.37,2013-08-13 12:50:00,
2013-08-13 07:55:00,78.3,71.6,29.98,NNW,338,0.0,0.0,80,0.00,CLR,,0.64,WeatherDisplay:10.37,2013-08-13 12:55:00,
2013-08-13 08:00:00,77.7,72.1,29.98,NNW,338,0.0,0.0,83,0.00,CLR,,0.64,WeatherDisplay:10.37,2013-08-13 13:00:00,
2013-08-13 08:05:00,77.2,71.6,29.99,NNW,338,0.0,0.0,83,0.00,CLR,,0.64,WeatherDisplay:10.37,2013-08-13 13:05:00,
2013-08-13 08:10:00,76.7,71.8,29.99,NNW,338,0.0,0.0,85,0.00,CLR,,0.64,WeatherDisplay:10.37,2013-08-13 13:10:00,
2013-08-13 08:15:00,76.3,71.8,29.99,NNW,338,0.0,0.0,86,0.00,CLR,,0.64,WeatherDisplay:10.37,2013-08-13 13:15:00,
2013-08-13 08:20:00,75.8,71.3,29.99,NNW,338,0.0,1.0,86,0.00,CLR,,0.64,WeatherDisplay:10.37,2013-08-13 13:20:00,
2013-08-13 08:25:00,75.4,70.9,29.99,NNW,338,0.0,0.0,86,0.00,CLR,,0.64,WeatherDisplay:10.37,2013-08-13 13:25:00,
2013-08-13 08:30:00,75.1,71.3,29.99,NNW,338,0.0,0.0,88,0.00,CLR,,0.64,WeatherDisplay:10.37,2013-08-13 13:30:00,
2013-08-13 08:35:00,74.9,71.1,29.98,NNW,338,0.0,0.0,88,0.00,CLR,,0.64,WeatherDisplay:10.37,2013-08-13 13:35:00,
2013-08-13 08:40:00,74.7,71.2,29.98,NNW,338,0.0,0.0,89,0.00,CLR,,0.64,WeatherDisplay:10.37,2013-08-13 13:40:00,
2013-08-13 08:45:00,74.6,71.1,29.98,NNW,338,0.0,0.0,89,0.00,CLR,,0.64,WeatherDisplay:10.37,2013-08-13 13:45:00,
2013-08-13 08:50:00,74.6,71.5,29.99,NNW,338,0.0,0.0,90,0.01,RA,,0.65,WeatherDisplay:10.37,2013-08-13 13:50:00,
2013-08-13 08:55:00,74.4,71.3,29.99,NNW,338,0.0,0.0,90,0.01,RA,,0.65,WeatherDisplay:10.37,2013-08-13 13:55:00,
2013-08-13 09:00:00,74.2,71.1,29.99,NNW,338,0.0,0.0,90,0.00,CLR,,0.65,WeatherDisplay:10.37,2013-08-13 14:00:00,
2013-08-13 09:05:00,74.2,71.1,29.99,NNW,338,0.0,0.0,90,0.00,CLR,,0.65,WeatherDisplay:10.37,2013-08-13 14:05:00,
2013-08-13 09:10:00,74.0,70.9,29.99,NNW,338,0.0,0.0,90,0.00,CLR,,0.65,WeatherDisplay:10.37,2013-08-13 14:10:00,
2013-08-13 09:15:00,74.0,71.2,29.99,NNW,338,0.0,0.0,91,0.00,CLR,,0.65,WeatherDisplay:10.37,2013-08-13 14:15:00,
2013-08-13 09:20:00,74.0,71.2,30.00,NNW,338,0.0,0.0,91,0.00,CLR,,0.65,WeatherDisplay:10.37,2013-08-13 14:20:00,
2013-08-13 09:25:00,73.9,71.1,30.00,NNW,338,0.0,0.0,91,0.00,CLR,,0.65,WeatherDisplay:10.37,2013-08-13 14:25:00,
2013-08-13 09:30:00,73.9,71.1,30.00,NNW,338,0.0,0.0,91,0.00,CLR,,0.65,WeatherDisplay:10.37,2013-08-13 14:30:00,
2013-08-13 09:35:00,73.7,70.9,30.01,NNW,338,0.0,0.0,91,0.00,CLR,,0.65,WeatherDisplay:10.37,2013-08-13 14:35:00,
2013-08-13 09:40:00,73.7,71.2,30.01,NNW,338,0.0,0.0,92,0.00,CLR,,0.65,WeatherDisplay:10.37,2013-08-13 14:40:00,
2013-08-13 09:45:00,73.7,71.2,30.01,NNW,338,0.0,0.0,92,0.00,CLR,,0.65,WeatherDisplay:10.37,2013-08-13 14:45:00,
2013-08-13 09:50:00,73.7,71.2,30.01,NNW,338,0.0,0.0,92,0.00,CLR,,0.65,WeatherDisplay:10.37,2013-08-13 14:50:00,
2013-08-13 09:55:00,73.7,71.2,30.01,NNW,338,0.0,0.0,92,0.00,CLR,,0.65,WeatherDisplay:10.37,2013-08-13 14:55:00,
2013-08-13 10:00:00,73.7,71.2,30.01,NNW,338,0.0,0.0,92,0.00,CLR,,0.65,WeatherDisplay:10.37,2013-08-13 15:00:00,
2013-08-13 10:05:00,73.7,71.2,30.01,NNW,338,0.0,0.0,92,0.00,CLR,,0.65,WeatherDisplay:10.37,2013-08-13 15:05:00,
2013-08-13 10:10:00,73.7,70.9,30.01,NNW,338,0.0,0.0,91,0.00,CLR,,0.65,WeatherDisplay:10.37,2013-08-13 15:10:00,
2013-08-13 10:15:00,73.9,71.1,30.01,NNW,338,0.0,0.0,91,0.00,CLR,,0.65,WeatherDisplay:10.37,2013-08-13 15:15:00,
2013-08-13 10:20:00,73.9,71.1,30.01,NNW,338,0.0,0.0,91,0.00,CLR,,0.65,WeatherDisplay:10.37,2013-08-13 15:20:00,
2013-08-13 10:25:00,73.7,70.9,30.01,NNW,338,0.0,0.0,91,0.00,CLR,,0.65,WeatherDisplay:10.37,2013-08-13 15:25:00,
2013-08-13 10:30:00,73.7,70.9,30.01,NNW,338,0.0,0.0,91,0.00,CLR,,0.65,WeatherDisplay:10.37,2013-08-13 15:30:00,
2013-08-13 10:35:00,73.9,71.4,30.02,NNW,338,0.0,0.0,92,0.00,CLR,,0.65,WeatherDisplay:10.37,2013-08-13 15:35:00,
2013-08-13 10:40:00,73.7,71.2,30.02,NNW,338,0.0,0.0,92,0.00,CLR,,0.65,WeatherDisplay:10.37,2013-08-13 15:40:00,
2013-08-13 10:45:00,73.7,71.2,30.02,NNW,338,0.0,0.0,92,0.00,CLR,,0.65,WeatherDisplay:10.37,2013-08-13 15:45:00,
2013-08-13 10:50:00,73.7,71.2,30.02,NNW,338,0.0,0.0,92,0.00,CLR,,0.65,WeatherDisplay:10.37,2013-08-13 15:50:00,
2013-08-13 10:55:00,73.5,71.0,30.02,NNW,338,0.0,0.0,92,0.00,CLR,,0.65,WeatherDisplay:10.37,2013-08-13 15:55:00,
2013-08-13 11:00:00,73.5,71.0,30.02,NNW,338,0.0,0.0,92,0.00,CLR,,0.65,WeatherDisplay:10.37,2013-08-13 16:00:00,
2013-08-13 11:05:00,73.5,71.0,30.02,NNW,338,0.0,0.0,92,0.00,CLR,,0.65,WeatherDisplay:10.37,2013-08-13 16:05:00,
2013-08-13 11:10:00,73.5,71.0,30.02,NNW,338,0.0,0.0,92,0.00,CLR,,0.65,WeatherDisplay:10.37,2013-08-13 16:10:00,
2013-08-13 11:15:00,73.3,70.8,30.02,NNW,338,0.0,0.0,92,0.00,CLR,,0.65,WeatherDisplay:10.37,2013-08-13 16:15:00,
2013-08-13 11:20:00,73.3,70.8,30.02,NNW,338,0.0,0.0,92,0.00,CLR,,0.65,WeatherDisplay:10.37,2013-08-13 16:20:00,
2013-08-13 11:25:00,73.3,70.8,30.02,NNW,338,0.0,0.0,92,0.00,CLR,,0.65,WeatherDisplay:10.37,2013-08-13 16:25:00,
2013-08-13 11:30:00,73.3,70.8,30.02,NNW,338,0.0,0.0,92,0.00,CLR,,0.65,WeatherDisplay:10.37,2013-08-13 16:30:00,
2013-08-13 11:35:00,73.2,70.7,30.02,NNW,338,0.0,0.0,92,0.00,CLR,,0.65,WeatherDisplay:10.37,2013-08-13 16:35:00,
2013-08-13 11:40:00,73.2,70.7,30.02,NNW,338,0.0,0.0,92,0.00,CLR,,0.65,WeatherDisplay:10.37,2013-08-13 16:40:00,
2013-08-13 11:45:00,73.0,70.2,30.02,NNW,338,0.0,0.0,91,0.00,CLR,,0.65,WeatherDisplay:10.37,2013-08-13 16:45:00,
2013-08-13 11:50:00,73.0,70.2,30.02,NNW,338,0.0,0.0,91,0.00,CLR,,0.65,WeatherDisplay:10.37,2013-08-13 16:50:00,
2013-08-13 11:55:00,72.8,70.0,30.02,NNW,338,0.0,0.0,91,0.00,CLR,,0.65,WeatherDisplay:10.37,2013-08-13 16:55:00,
2013-08-13 12:00:00,72.8,69.7,30.02,NNW,338,0.0,0.0,90,0.00,CLR,,0.65,WeatherDisplay:10.37,2013-08-13 17:00:00,
2013-08-13 12:05:00,72.8,69.7,30.02,NNW,338,0.0,0.0,90,0.00,CLR,,0.65,WeatherDisplay:10.37,2013-08-13 17:05:00,
2013-08-13 12:10:00,72.8,69.7,30.02,NNW,338,0.0,0.0,90,0.00,CLR,,0.65,WeatherDisplay:10.37,2013-08-13 17:10:00,
2013-08-13 12:15:00,73.0,69.9,30.02,NNW,338,0.0,0.0,90,0.00,CLR,,0.65,WeatherDisplay:10.37,2013-08-13 17:15:00,
2013-08-13 12:20:00,73.0,69.9,30.02,NNW,338,0.0,0.0,90,0.00,CLR,,0.65,WeatherDisplay:10.37,2013-08-13 17:20:00,
2013-08-13 12:25:00,73.0,69.6,30.02,NNW,338,0.0,0.0,89,0.00,CLR,,0.65,WeatherDisplay:10.37,2013-08-13 17:25:00,
2013-08-13 12:30:00,73.0,69.6,30.02,NNW,338,0.0,0.0,89,0.00,CLR,,0.65,WeatherDisplay:10.37,2013-08-13 17:30:00,
2013-08-13 12:35:00,73.2,69.8,30.01,NNW,338,0.0,0.0,89,0.00,CLR,,0.65,WeatherDisplay:10.37,2013-08-13 17:35:00,
2013-08-13 12:40:00,73.2,69.8,30.01,NNW,338,0.0,1.0,89,0.00,CLR,,0.65,WeatherDisplay:10.37,2013-08-13 17:40:00,
2013-08-13 12:45:00,73.2,69.8,30.01,NNW,338,0.0,1.0,89,0.00,CLR,,0.65,WeatherDisplay:10.37,2013-08-13 17:45:00,
2013-08-13 12:50:00,73.0,69.6,30.01,NNW,338,0.0,0.0,89,0.00,CLR,,0.65,WeatherDisplay:10.37,2013-08-13 17:50:00,
2013-08-13 12:55:00,73.0,69.9,30.01,NNW,338,0.0,1.0,90,0.00,CLR,,0.65,WeatherDisplay:10.37,2013-08-13 17:55:00,
2013-08-13 13:00:00,72.8,69.7,30.01,NNW,338,0.0,0.0,90,0.00,CLR,,0.65,WeatherDisplay:10.37,2013-08-13 18:00:00,
2013-08-13 13:05:00,72.8,69.7,30.01,NNW,338,0.0,1.0,90,0.00,RA,,0.00,WeatherDisplay:10.37,2013-08-13 18:05:00,
2013-08-13 13:10:00,72.7,69.6,30.01,NNW,338,0.0,0.0,90,0.00,RA,,0.00,WeatherDisplay:10.37,2013-08-13 18:10:00,
2013-08-13 13:15:00,72.7,69.6,30.01,NNW,338,0.0,0.0,90,0.00,CLR,,0.00,WeatherDisplay:10.37,2013-08-13 18:15:00,
2013-08-13 13:20:00,72.5,69.4,30.02,NNW,338,0.0,0.0,90,0.00,CLR,,0.00,WeatherDisplay:10.37,2013-08-13 18:20:00,
2013-08-13 13:25:00,72.5,69.4,30.02,NNW,338,0.0,1.0,90,0.00,CLR,,0.00,WeatherDisplay:10.37,2013-08-13 18:25:00,
2013-08-13 13:30:00,72.5,69.7,30.02,NNW,338,0.0,0.0,91,0.00,CLR,,0.00,WeatherDisplay:10.37,2013-08-13 18:30:00,
2013-08-13 13:35:00,72.5,69.7,30.02,NNW,338,0.0,0.0,91,0.00,CLR,,0.00,WeatherDisplay:10.37,2013-08-13 18:35:00,
2013-08-13 13:40:00,72.3,69.8,30.02,NNW,338,0.0,0.0,92,0.00,CLR,,0.00,WeatherDisplay:10.37,2013-08-13 18:40:00,
2013-08-13 13:45:00,72.3,69.8,30.02,NNW,338,0.0,0.0,92,0.00,CLR,,0.00,WeatherDisplay:10.37,2013-08-13 18:45:00,
2013-08-13 13:50:00,72.3,69.8,30.02,NNW,338,0.0,0.0,92,0.00,CLR,,0.00,WeatherDisplay:10.37,2013-08-13 18:50:00,
2013-08-13 13:55:00,72.3,69.8,30.02,NNW,338,0.0,0.0,92,0.00,CLR,,0.00,WeatherDisplay:10.37,2013-08-13 18:55:00,
2013-08-13 14:00:00,72.3,69.5,30.02,NNW,338,0.0,0.0,91,0.00,CLR,,0.00,WeatherDisplay:10.37,2013-08-13 19:00:00,
2013-08-13 14:05:00,72.3,69.8,30.02,NNW,338,0.0,0.0,92,0.00,CLR,,0.00,WeatherDisplay:10.37,2013-08-13 19:05:00,
2013-08-13 14:10:00,72.1,69.3,30.02,NNW,338,0.0,0.0,91,0.00,CLR,,0.00,WeatherDisplay:10.37,2013-08-13 19:10:00,
2013-08-13 14:15:00,72.1,69.3,30.02,NNW,338,0.0,0.0,91,0.00,CLR,,0.00,WeatherDisplay:10.37,2013-08-13 19:15:00,
2013-08-13 14:20:00,72.0,69.2,30.01,NNW,338,0.0,0.0,91,0.00,CLR,,0.00,WeatherDisplay:10.37,2013-08-13 19:20:00,
2013-08-13 14:25:00,72.0,69.2,30.01,NNW,338,0.0,0.0,91,0.00,CLR,,0.00,WeatherDisplay:10.37,2013-08-13 19:25:00,
2013-08-13 14:30:00,72.0,69.2,30.01,NNW,338,0.0,0.0,91,0.00,CLR,,0.00,WeatherDisplay:10.37,2013-08-13 19:30:00,
2013-08-13 14:35:00,71.8,69.0,30.01,NNW,338,0.0,0.0,91,0.00,CLR,,0.00,WeatherDisplay:10.37,2013-08-13 19:35:00,
2013-08-13 14:40:00,71.8,69.0,30.01,NNW,338,0.0,0.0,91,0.00,CLR,,0.00,WeatherDisplay:10.37,2013-08-13 19:40:00,
2013-08-13 14:45:00,71.6,68.8,30.01,NNW,338,0.0,0.0,91,0.00,CLR,,0.00,WeatherDisplay:10.37,2013-08-13 19:45:00,
2013-08-13 14:50:00,71.6,68.8,30.01,NNW,338,0.0,0.0,91,0.00,CLR,,0.00,WeatherDisplay:10.37,2013-08-13 19:50:00,
2013-08-13 14:55:00,71.5,68.7,30.01,NNW,338,0.0,0.0,91,0.00,CLR,,0.00,WeatherDisplay:10.37,2013-08-13 19:55:00,
2013-08-13 15:00:00,71.3,68.2,30.01,NNW,338,0.0,0.0,90,0.00,CLR,,0.00,WeatherDisplay:10.37,2013-08-13 20:00:00,
2013-08-13 15:05:00,71.1,67.7,30.01,NNW,338,0.0,0.0,89,0.00,CLR,,0.00,WeatherDisplay:10.37,2013-08-13 20:05:00,
2013-08-13 15:10:00,71.1,67.4,30.01,NNW,338,0.0,1.0,88,0.00,CLR,,0.00,WeatherDisplay:10.37,2013-08-13 20:10:00,
2013-08-13 15:15:00,71.3,67.9,30.01,NNW,338,0.0,1.0,89,0.00,CLR,,0.00,WeatherDisplay:10.37,2013-08-13 20:15:00,
2013-08-13 15:20:00,71.1,68.0,30.02,NNW,338,0.0,0.0,90,0.00,CLR,,0.00,WeatherDisplay:10.37,2013-08-13 20:20:00,
2013-08-13 15:25:00,71.1,68.0,30.02,NNW,338,0.0,0.0,90,0.00,CLR,,0.00,WeatherDisplay:10.37,2013-08-13 20:25:00,
2013-08-13 15:30:00,70.9,67.8,30.02,NNW,338,0.0,0.0,90,0.00,CLR,,0.00,WeatherDisplay:10.37,2013-08-13 20:30:00,
2013-08-13 15:35:00,70.8,67.7,30.02,NNW,338,0.0,0.0,90,0.00,CLR,,0.00,WeatherDisplay:10.37,2013-08-13 20:35:00,
2013-08-13 15:40:00,70.6,67.8,30.02,NNW,338,0.0,0.0,91,0.00,CLR,,0.00,WeatherDisplay:10.37,2013-08-13 20:40:00,
2013-08-13 15:45:00,70.6,67.8,30.02,NNW,338,0.0,0.0,91,0.00,CLR,,0.00,WeatherDisplay:10.37,2013-08-13 20:45:00,
2013-08-13 15:50:00,70.4,67.6,30.02,NNW,338,0.0,0.0,91,0.00,CLR,,0.00,WeatherDisplay:10.37,2013-08-13 20:50:00,
2013-08-13 15:55:00,70.3,67.9,30.02,NNW,338,0.0,0.0,92,0.00,CLR,,0.00,WeatherDisplay:10.37,2013-08-13 20:55:00,
2013-08-13 16:00:00,70.3,67.9,30.02,NNW,338,0.0,0.0,92,0.00,CLR,,0.00,WeatherDisplay:10.37,2013-08-13 21:00:00,
2013-08-13 16:05:00,70.1,67.7,30.02,NNW,338,0.0,0.0,92,0.00,CLR,,0.00,WeatherDisplay:10.37,2013-08-13 21:05:00,
2013-08-13 16:10:00,69.9,67.5,30.02,NNW,338,0.0,0.0,92,0.00,CLR,,0.00,WeatherDisplay:10.37,2013-08-13 21:10:00,
2013-08-13 16:15:00,69.9,67.5,30.02,NNW,338,0.0,0.0,92,0.00,CLR,,0.00,WeatherDisplay:10.37,2013-08-13 21:15:00,
2013-08-13 16:20:00,69.8,67.4,30.02,NNW,338,0.0,0.0,92,0.00,CLR,,0.00,WeatherDisplay:10.37,2013-08-13 21:20:00,
2013-08-13 16:25:00,69.6,67.2,30.02,NNW,338,0.0,0.0,92,0.00,CLR,,0.00,WeatherDisplay:10.37,2013-08-13 21:25:00,
2013-08-13 16:30:00,69.4,67.3,30.02,NNW,338,0.0,0.0,93,0.00,CLR,,0.00,WeatherDisplay:10.37,2013-08-13 21:30:00,
2013-08-13 16:35:00,69.3,67.2,30.02,NNW,338,0.0,0.0,93,0.00,CLR,,0.00,WeatherDisplay:10.37,2013-08-13 21:35:00,
2013-08-13 16:40:00,69.3,67.2,30.02,NNW,338,0.0,0.0,93,0.00,CLR,,0.00,WeatherDisplay:10.37,2013-08-13 21:40:00,
2013-08-13 16:45:00,69.1,67.0,30.02,NNW,338,0.0,0.0,93,0.00,CLR,,0.00,WeatherDisplay:10.37,2013-08-13 21:45:00,
2013-08-13 16:50:00,68.9,66.8,30.02,NNW,338,0.0,0.0,93,0.00,CLR,,0.00,WeatherDisplay:10.37,2013-08-13 21:50:00,
2013-08-13 16:55:00,68.9,66.8,30.02,NNW,338,0.0,0.0,93,0.00,CLR,,0.00,WeatherDisplay:10.37,2013-08-13 21:55:00,
2013-08-13 17:00:00,68.8,66.7,30.02,NNW,338,0.0,0.0,93,0.00,CLR,,0.00,WeatherDisplay:10.37,2013-08-13 22:00:00,
2013-08-13 17:05:00,68.8,67.0,30.03,NNW,338,0.0,0.0,94,0.00,CLR,,0.00,WeatherDisplay:10.37,2013-08-13 22:05:00,
2013-08-13 17:10:00,68.8,67.0,30.03,NNW,338,0.0,0.0,94,0.00,CLR,,0.00,WeatherDisplay:10.37,2013-08-13 22:10:00,
2013-08-13 17:15:00,68.8,67.0,30.03,NNW,338,0.0,0.0,94,0.00,CLR,,0.00,WeatherDisplay:10.37,2013-08-13 22:15:00,
2013-08-13 17:20:00,68.6,66.8,30.04,NNW,338,0.0,0.0,94,0.00,CLR,,0.00,WeatherDisplay:10.37,2013-08-13 22:20:00,
2013-08-13 17:25:00,68.6,66.8,30.04,NNW,338,0.0,0.0,94,0.00,CLR,,0.00,WeatherDisplay:10.37,2013-08-13 22:25:00,
2013-08-13 17:30:00,68.4,66.6,30.04,NNW,338,0.0,0.0,94,0.00,CLR,,0.00,WeatherDisplay:10.37,2013-08-13 22:30:00,
2013-08-13 17:35:00,68.4,66.3,30.04,NNW,338,0.0,1.0,93,0.00,CLR,,0.00,WeatherDisplay:10.37,2013-08-13 22:35:00,
2013-08-13 17:40:00,68.4,66.3,30.04,NNW,338,0.0,0.0,93,0.00,CLR,,0.00,WeatherDisplay:10.37,2013-08-13 22:40:00,
2013-08-13 17:45:00,68.4,66.3,30.04,NNW,338,0.0,0.0,93,0.00,CLR,,0.00,WeatherDisplay:10.37,2013-08-13 22:45:00,
2013-08-13 17:50:00,68.3,66.2,30.04,NNW,338,0.0,0.0,93,0.00,CLR,,0.00,WeatherDisplay:10.37,2013-08-13 22:50:00,
2013-08-13 17:55:00,68.3,65.9,30.04,NNW,338,0.0,0.0,92,0.00,CLR,,0.00,WeatherDisplay:10.37,2013-08-13 22:55:00,
2013-08-13 18:00:00,68.3,65.9,30.04,NNW,338,0.0,0.0,92,0.00,CLR,,0.00,WeatherDisplay:10.37,2013-08-13 23:00:00,
2013-08-13 18:05:00,68.3,65.9,30.04,NNW,338,0.0,0.0,92,0.00,CLR,,0.00,WeatherDisplay:10.37,2013-08-13 23:05:00,
2013-08-13 18:10:00,68.3,65.9,30.04,NNW,338,0.0,0.0,92,0.00,CLR,,0.00,WeatherDisplay:10.37,2013-08-13 23:10:00,
2013-08-13 18:15:00,68.1,65.7,30.04,NNW,338,0.0,0.0,92,0.00,CLR,,0.00,WeatherDisplay:10.37,2013-08-13 23:15:00,
2013-08-13 18:20:00,68.1,65.7,30.04,NNW,338,0.0,0.0,92,0.00,CLR,,0.00,WeatherDisplay:10.37,2013-08-13 23:20:00,
2013-08-13 18:25:00,67.9,65.5,30.04,NNW,338,0.0,0.0,92,0.00,CLR,,0.00,WeatherDisplay:10.37,2013-08-13 23:25:00,
2013-08-13 18:30:00,67.9,65.5,30.04,NNW,338,0.0,0.0,92,0.00,CLR,,0.00,WeatherDisplay:10.37,2013-08-13 23:30:00,
2013-08-13 18:35:00,67.9,65.5,30.05,NNW,338,0.0,0.0,92,0.00,CLR,,0.00,WeatherDisplay:10.37,2013-08-13 23:35:00,
2013-08-13 18:40:00,67.8,65.4,30.05,NNW,338,0.0,0.0,92,0.00,CLR,,0.00,WeatherDisplay:10.37,2013-08-13 23:40:00,
2013-08-13 18:45:00,67.8,65.4,30.05,NNW,338,0.0,0.0,92,0.00,CLR,,0.00,WeatherDisplay:10.37,2013-08-13 23:45:00,
2013-08-13 18:50:00,67.6,65.2,30.05,NNW,338,0.0,0.0,92,0.00,CLR,,0.00,WeatherDisplay:10.37,2013-08-13 23:50:00,
2013-08-13 18:55:00,67.4,65.3,30.05,NNW,338,0.0,0.0,93,0.00,CLR,,0.00,WeatherDisplay:10.37,2013-08-13 23:55:00,
2013-08-13 19:00:00,67.4,65.3,30.05,NNW,338,0.0,0.0,93,0.00,CLR,,0.00,WeatherDisplay:10.37,2013-08-14 00:00:00,
2013-08-13 19:05:00,67.3,65.2,30.06,NNW,338,0.0,0.0,93,0.00,CLR,,0.00,WeatherDisplay:10.37,2013-08-14 00:05:00,
2013-08-13 19:10:00,67.3,65.2,30.06,NNW,338,0.0,0.0,93,0.00,CLR,,0.00,WeatherDisplay:10.37,2013-08-14 00:10:00,
2013-08-13 19:15:00,67.3,65.2,30.06,NNW,338,0.0,0.0,93,0.00,CLR,,0.00,WeatherDisplay:10.37,2013-08-14 00:15:00,
2013-08-13 19:20:00,67.3,65.2,30.07,NNW,338,0.0,0.0,93,0.00,CLR,,0.00,WeatherDisplay:10.37,2013-08-14 00:20:00,
2013-08-13 19:25:00,67.3,65.5,30.07,NNW,338,0.0,0.0,94,0.00,CLR,,0.00,WeatherDisplay:10.37,2013-08-14 00:25:00,
2013-08-13 19:30:00,67.3,65.5,30.07,NNW,338,0.0,0.0,94,0.00,CLR,,0.00,WeatherDisplay:10.37,2013-08-14 00:30:00,
2013-08-13 19:35:00,67.3,65.2,30.07,NNW,338,0.0,1.0,93,0.00,CLR,,0.00,WeatherDisplay:10.37,2013-08-14 00:35:00,
2013-08-13 19:40:00,67.3,65.2,30.07,NNW,338,0.0,1.0,93,0.00,CLR,,0.00,WeatherDisplay:10.37,2013-08-14 00:40:00,
2013-08-13 19:45:00,67.4,65.3,30.07,NNW,338,0.0,1.0,93,0.00,CLR,,0.00,WeatherDisplay:10.37,2013-08-14 00:45:00,
2013-08-13 19:50:00,67.3,65.2,30.07,NNW,338,0.0,0.0,93,0.00,CLR,,0.00,WeatherDisplay:10.37,2013-08-14 00:50:00,
2013-08-13 19:55:00,67.4,65.3,30.07,NNW,338,0.0,0.0,93,0.00,CLR,,0.00,WeatherDisplay:10.37,2013-08-14 00:55:00,
2013-08-13 20:00:00,67.4,65.0,30.07,NNW,338,0.0,1.0,92,0.00,CLR,,0.00,WeatherDisplay:10.37,2013-08-14 01:00:00,
2013-08-13 20:05:00,67.4,65.0,30.07,NNW,338,0.0,1.0,92,0.00,CLR,,0.00,WeatherDisplay:10.37,2013-08-14 01:05:00,
2013-08-13 20:10:00,67.6,64.9,30.07,NNW,338,0.0,0.0,91,0.00,CLR,,0.00,WeatherDisplay:10.37,2013-08-14 01:10:00,
2013-08-13 20:15:00,67.8,64.8,30.07,NNW,338,0.0,1.0,90,0.00,CLR,,0.00,WeatherDisplay:10.37,2013-08-14 01:15:00,
2013-08-13 20:20:00,68.1,64.4,30.07,NNW,338,0.0,1.0,88,0.00,CLR,,0.00,WeatherDisplay:10.37,2013-08-14 01:20:00,
2013-08-13 20:25:00,68.6,64.2,30.07,NNW,338,0.0,1.0,86,0.00,CLR,,0.00,WeatherDisplay:10.37,2013-08-14 01:25:00,
2013-08-13 20:30:00,68.9,64.2,30.07,NNW,338,0.0,1.0,85,0.00,CLR,,0.00,WeatherDisplay:10.37,2013-08-14 01:30:00,
2013-08-13 20:35:00,69.3,64.6,30.07,NNW,338,0.0,1.0,85,0.00,CLR,,0.00,WeatherDisplay:10.37,2013-08-14 01:35:00,
2013-08-13 20:40:00,69.8,64.4,30.07,NNW,338,0.0,1.0,83,0.00,CLR,,0.00,WeatherDisplay:10.37,2013-08-14 01:40:00,
2013-08-13 20:45:00,70.3,64.9,30.07,NNW,338,0.0,1.0,83,0.00,CLR,,0.00,WeatherDisplay:10.37,2013-08-14 01:45:00,
2013-08-13 20:50:00,70.4,64.6,30.07,NNW,338,0.0,1.0,82,0.00,CLR,,0.00,WeatherDisplay:10.37,2013-08-14 01:50:00,
2013-08-13 20:55:00,70.9,65.5,30.07,NNW,338,0.0,0.0,83,0.00,CLR,,0.00,WeatherDisplay:10.37,2013-08-14 01:55:00,
2013-08-13 21:00:00,71.3,65.2,30.07,NNW,338,0.0,1.0,81,0.00,CLR,,0.00,WeatherDisplay:10.37,2013-08-14 02:00:00,
2013-08-13 21:05:00,71.5,65.7,30.09,NNW,338,0.0,1.0,82,0.00,CLR,,0.00,WeatherDisplay:10.37,2013-08-14 02:05:00,
2013-08-13 21:10:00,71.3,65.2,30.09,NNW,338,0.0,4.0,81,0.00,CLR,,0.00,WeatherDisplay:10.37,2013-08-14 02:10:00,
2013-08-13 21:15:00,71.3,65.2,30.09,NNW,338,0.0,2.0,81,0.00,CLR,,0.00,WeatherDisplay:10.37,2013-08-14 02:15:00,
2013-08-13 21:20:00,71.1,65.0,30.09,North,9,1.0,5.0,81,0.00,CLR,,0.00,WeatherDisplay:10.37,2013-08-14 02:20:00,
2013-08-13 21:25:00,71.3,64.8,30.09,NE,45,0.0,2.0,80,0.00,CLR,,0.00,WeatherDisplay:10.37,2013-08-14 02:25:00,
2013-08-13 21:30:00,71.3,65.2,30.09,NE,45,0.0,1.0,81,0.00,CLR,,0.00,WeatherDisplay:10.37,2013-08-14 02:30:00,
2013-08-13 21:35:00,71.3,64.8,30.09,NE,45,0.0,3.0,80,0.00,CLR,,0.00,WeatherDisplay:10.37,2013-08-14 02:35:00,
2013-08-13 21:40:00,71.3,65.2,30.09,NE,45,0.0,3.0,81,0.00,CLR,,0.00,WeatherDisplay:10.37,2013-08-14 02:40:00,
2013-08-13 21:45:00,71.6,65.5,30.09,NE,56,1.0,7.0,81,0.00,CLR,,0.00,WeatherDisplay:10.37,2013-08-14 02:45:00,
2013-08-13 21:50:00,72.3,66.1,30.09,ENE,68,0.0,1.0,81,0.01,RA,,0.01,WeatherDisplay:10.37,2013-08-14 02:50:00,
2013-08-13 21:55:00,72.8,65.2,30.09,NE,47,1.0,5.0,77,0.01,RA,,0.01,WeatherDisplay:10.37,2013-08-14 02:55:00,
2013-08-13 22:00:00,73.3,65.7,30.09,NNE,22,0.0,4.0,77,0.00,CLR,,0.01,WeatherDisplay:10.37,2013-08-14 03:00:00,
2013-08-13 22:05:00,73.5,65.5,30.08,NE,43,1.0,4.0,76,0.00,CLR,,0.01,WeatherDisplay:10.37,2013-08-14 03:05:00,
2013-08-13 22:10:00,73.7,65.7,30.08,NE,45,1.0,4.0,76,0.00,CLR,,0.01,WeatherDisplay:10.37,2013-08-14 03:10:00,
2013-08-13 22:15:00,74.0,66.3,30.08,NNE,22,0.0,2.0,77,0.00,CLR,,0.01,WeatherDisplay:10.37,2013-08-14 03:15:00,
2013-08-13 22:20:00,74.6,66.5,30.08,NNE,22,0.0,3.0,76,0.00,CLR,,0.01,WeatherDisplay:10.37,2013-08-14 03:20:00,
2013-08-13 22:25:00,75.1,66.6,30.08,NNE,22,0.0,3.0,75,0.00,CLR,,0.01,WeatherDisplay:10.37,2013-08-14 03:25:00,
2013-08-13 22:30:00,75.4,66.9,30.08,NNE,22,0.0,5.0,75,0.00,CLR,,0.01,WeatherDisplay:10.37,2013-08-14 03:30:00,
2013-08-13 22:35:00,75.4,66.5,30.08,NNE,22,1.0,4.0,74,0.00,CLR,,0.01,WeatherDisplay:10.37,2013-08-14 03:35:00,
2013-08-13 22:40:00,75.8,66.9,30.08,NNE,22,0.0,1.0,74,0.00,CLR,,0.01,WeatherDisplay:10.37,2013-08-14 03:40:00,
2013-08-13 22:45:00,76.3,66.6,30.08,NNE,22,0.0,1.0,72,0.00,CLR,,0.01,WeatherDisplay:10.37,2013-08-14 03:45:00,
2013-08-13 22:50:00,76.7,66.2,30.08,NNE,22,0.0,5.0,70,0.00,CLR,,0.01,WeatherDisplay:10.37,2013-08-14 03:50:00,
2013-08-13 22:55:00,77.0,66.5,30.08,NNE,22,0.0,1.0,70,0.00,CLR,,0.01,WeatherDisplay:10.37,2013-08-14 03:55:00,
2013-08-13 23:00:00,77.0,67.3,30.08,NNE,22,1.0,7.0,72,0.00,CLR,,0.01,WeatherDisplay:10.37,2013-08-14 04:00:00,
2013-08-13 23:05:00,77.0,66.5,30.08,NE,34,1.0,5.0,70,0.00,CLR,,0.01,WeatherDisplay:10.37,2013-08-14 04:05:00,
2013-08-13 23:10:00,77.4,68.1,30.08,NE,45,0.0,5.0,73,0.00,CLR,,0.01,WeatherDisplay:10.37,2013-08-14 04:10:00,
2013-08-13 23:15:00,78.1,66.2,30.08,NE,45,0.0,4.0,67,0.00,CLR,,0.01,WeatherDisplay:10.37,2013-08-14 04:15:00,
2013-08-13 23:20:00,77.7,65.9,30.09,NE,45,0.0,2.0,67,0.00,CLR,,0.01,WeatherDisplay:10.37,2013-08-14 04:20:00,
2013-08-13 23:25:00,77.0,66.0,30.09,NE,45,0.0,3.0,69,0.00,CLR,,0.01,WeatherDisplay:10.37,2013-08-14 04:25:00,
2013-08-13 23:30:00,76.7,66.2,30.09,NE,45,0.0,3.0,70,0.00,CLR,,0.01,WeatherDisplay:10.37,2013-08-14 04:30:00,
2013-08-13 23:35:00,76.1,66.0,30.09,NE,45,0.0,1.0,71,0.00,CLR,,0.01,WeatherDisplay:10.37,2013-08-14 04:35:00,
2013-08-13 23:40:00,75.8,65.7,30.09,NE,45,0.0,1.0,71,0.00,CLR,,0.01,WeatherDisplay:10.37,2013-08-14 04:40:00,
2013-08-13 23:45:00,76.0,66.3,30.09,NE,45,0.0,1.0,72,0.00,CLR,,0.01,WeatherDisplay:10.37,2013-08-14 04:45:00,
2013-08-13 23:50:00,76.8,67.1,30.08,NE,45,0.0,3.0,72,0.00,CLR,,0.01,WeatherDisplay:10.37,2013-08-14 04:50:00,
2013-08-13 23:55:00,77.0,66.5,30.08,NE,45,1.0,5.0,70,0.00,CLR,,0.01,WeatherDisplay:10.37,2013-08-14 04:55:00,